KSDF Airport Diagram

We have created a template for each of the higher traffic airports in the vZID airspace. They include KCMH, KCRW, KCVG, KDAY, KIND, KLEX and KSDF. You wil find usefull information including the airport diagram, weather, and specific airport procedures.

KSDF Weather

[Source: ADDS]
METAR
KSDF 181356Z 00000KT 6SM HZ SCT250 01/M02 A3027 RMK AO2 SLP252 T00111017 =
KSDF 181120Z 1812/1918 VRB04KT P6SM SCT250
TAF
KSDF 181120Z 1812/1918 VRB04KT P6SM SCT250 =

KSDF Operations

Calm Wind Configuration is runways 17L and 17R.

Runway 17L typically departs north and east.

Runway 17R typicall departs south and west.

 

JSN Epic template designed by JoomlaShine.com